星链-5767 (STARLINK-5767 )

导读

STARLINK-5767是美国SpaceX公司星链星座的卫星,于2023年2月12日发射升空,作为星链项目的一部分,它主要为全球提供高速互联网服务,尤其覆盖偏远地区等网络基础设施薄弱区域,该卫星的入轨进一步扩充了星链星座的规模,提升了系统的服务能力与覆盖稳定性。

基本信息
目录编号:
55586
目录名称:
STARLINK-5767
国际标识:
2023-020T
轨道中心:
EARTH
卫星名称:
星链-5767
卫星全名:
星链-5767 (STARLINK-5767 )
卫星状态:
在轨 (已飞行1308 天)
发射日期:
2023-02-12 UTC
国别 :
美国 (US)
星等 :
--
该卫星已列入 空间交会检测服务 Space Conjunction Data Service (SCDS) ,当前飞行风险评估等级: 无高风险
轨道信息
数据来源 国际轨道数据
星历时间: 2026-09-12T00:05:37+0800
21小时前
查看轨道信息
半长轴: 6861.196km
偏心率: 0.0002055
轨道倾角: 43.003°
近地点辐角 258.642°
升交点赤经 35.097°
平近点角 101.420°
近地点: 481.649km
远地点: 484.469km
周期: 94.267分钟
每日圈数: 15.275768
详细信息
固有亮度:
5
最大亮度:
2.5
卫星平台:
Starlink v1.5
覆盖范围:
全球
运营商:
太空探索技术公司
运营商所在国:
美国
制造商(研发单位):
太空探索技术公司
制造商所在国:
美国
使用方式:
暂无
卫星简介
星链(Starlink)计划是由太空探索技术公司(SpaceX)提出的一个巨型低轨卫星互联网星座项目,计划在2019年至2024年间在太空搭建由约1.2万颗卫星组成的“星链”网络,其中1584颗将部署在地球上空550千米处的近地轨道,并从2020年开始工作。该卫星仍在工作。
2D轨道图
3D轨道图
轨道高度分析图
轨道倾角分析图
轨道综合分析图
查看轨道综合分析图
交会数据列表
事件ID 空间交会对象 最接近时刻(TCA) 交会距离 交会风险概率(CRP) 交会风险指数(CRI) 操作
CDM_260914-101305-558606-219522
2026-09-14T
10:13:38+0000
0.984 km
远距离
1.801813E-5 中风险 0.6
CDM_260914-083905-558606-219522
2026-09-14T
08:39:29+0000
1.216 km
极远距离
8.656855E-6 低风险 0.54
CDM_260914-114705-558606-219521
2026-09-14T
11:47:47+0000
2.861 km
极远距离
9.773457E-7 极低风险 0.35
与全量物体交会距离演化趋势
与全量物体交会风险概率演化趋势